Location: Abraham Lincoln Continuation High School
(33.9711°N, 117.3662°W)
Time: 09:45:24
(UTC+00:00)

Cosmos 1680 Rocket - Pass Details

Date: 21 January 2021
Orbit: 761 x 780 km, 74.1° (Epoch: 08 March)

Event Time Altitude Azimuth Distance (km) Brightness Sun altitude
Rises 04:24:37 0° 323° (NW) 3,233 7.2 -40.4°
Reaches altitude 10° 04:27:41 10° 305° (NW) 2,300 6.5 -41.0°
Enters shadow 04:29:30 16° 286° (WNW) 1,928 6.1 -41.4°
